GFSMW_850_dewp_333.txt.gz
Dewpoint
13 13 13 13 12 13 12 12 12 12 12 11 10 10 10 9 8 7 5 -3 2 -0 6 7 9 9 8 8 8 5 3 1 0 1 2 2 2 1 1 1 0 0 -0
12 13 13 13 12 12 12 12 12 12 12 11 10 10 9 8 7 5 -7 1 -5 -3 5 7 9 8 8 9 6 5 2 1 -5 1 1 2 2 2 1 1 1 1 -1
12 11 14 12 12 12 11 12 12 12 11 11 10 9 8 7 5 -3 -8 -8 -6 -0 6 7 8 9 9 8 6 5 2 1 2 2 4 2 1 2 2 2 1 1 0
11 11 13 13 13 12 12 10 12 12 12 11 10 8 7 7 2 1 0 -13 -12 -3 -1 9 9 9 8 7 6 4 3 2 3 3 3 4 4 2 3 2 1 1 -0
12 13 13 12 12 12 12 11 12 12 12 11 10 9 8 4 3 2 -8 -10 -16 -12 -2 7 9 9 8 7 6 6 4 3 3 4 4 4 3 3 0 2 1 -0 -1
12 13 13 13 13 13 12 12 12 11 11 11 10 9 8 4 2 -3 -1 -1 -5 -14 -17 -5 4 8 9 8 8 6 6 5 5 4 4 3 3 2 -1 -2 -1 -2 -0
13 13 12 12 12 13 11 12 12 12 11 11 10 9 7 4 -3 -7 3 2 0 -8 -20 -20 -13 -5 5 8 8 8 8 7 6 6 4 3 3 2 -3 -5 -3 -3 -1
13 13 12 12 12 13 11 12 12 11 11 11 10 9 9 3 -1 -1 3 3 1 -7 -23 -22 -15 -12 -8 -4 1 4 7 7 7 6 5 3 1 -8 -5 -5 -4 -3 -2
12 12 12 12 12 12 12 12 12 11 11 11 10 9 9 4 2 3 3 3 -2 -12 -22 -23 -20 -17 -15 -13 -13 -10 -9 -4 -2 -0 3 1 -21 -23 -21 -10 -6 -5 -5
11 12 12 12 12 12 12 12 12 11 11 11 10 8 9 4 3 1 4 -1 -10 -19 -24 -26 -24 -20 -20 -19 -17 -19 -16 -9 -5 -7 -13 -22 -23 -24 -24 -22 -18 -9 -6
10 12 12 12 12 12 12 12 12 11 11 10 9 8 8 4 4 2 4 -7 -15 -22 -26 -27 -25 -22 -22 -21 -20 -20 -21 -22 -22 -23 -24 -24 -24 -22 -22 -22 -19 -15 -6
10 11 12 11 12 11 11 11 11 11 10 10 9 8 8 5 5 3 4 -6 -13 -24 -26 -28 -24 -23 -22 -22 -21 -22 -23 -23 -24 -24 -25 -24 -23 -23 -22 -21 -20 -21 -18
9 11 12 11 11 11 11 11 12 11 10 9 9 8 9 6 6 5 4 -5 -9 -22 -24 -27 -23 -22 -24 -23 -23 -22 -23 -23 -23 -24 -24 -23 -23 -21 -21 -20 -19 -21 -20
9 10 12 12 11 11 11 11 11 12 11 9 9 8 9 7 6 6 4 -4 -5 -18 -24 -25 -23 -23 -25 -25 -22 -22 -22 -23 -23 -23 -23 -23 -21 -21 -21 -19 -20 -20 -15
8 10 11 11 11 11 11 11 11 12 11 10 9 8 8 7 7 6 5 -2 -2 -12 -20 -24 -22 -24 -24 -23 -22 -21 -22 -23 -23 -23 -22 -22 -22 -22 -21 -16 -19 -19 -9
8 9 10 11 11 11 10 11 11 11 11 10 9 8 8 7 7 7 5 -1 -1 -7 -15 -19 -19 -23 -21 -21 -24 -22 -22 -22 -23 -22 -22 -22 -22 -22 -22 -21 -20 -20 -15
9 9 10 11 11 11 10 10 11 11 11 10 9 9 8 7 7 7 4 1 0 -3 -13 -15 -15 -21 -12 -26 -24 -23 -21 -20 -20 -21 -21 -22 -22 -22 -21 -21 -20 -20 -22
6 8 9 10 11 11 10 10 11 11 10 10 9 8 8 8 7 7 5 3 2 1 -8 -14 -15 -17 -14 -26 -24 -22 -18 -15 -15 -15 -20 -19 -21 -21 -21 -21 -20 -19 -20
5 6 8 9 10 11 10 10 10 11 10 10 9 8 8 8 7 8 6 4 4 2 -5 -12 -15 -14 -14 -26 -25 -22 -16 -11 -10 -15 -16 -17 -21 -21 -20 -21 -20 -18 -18
4 5 6 8 10 10 10 10 10 10 10 10 9 9 8 8 8 7 7 5 5 3 -2 -5 -11 -13 -14 -26 -25 -22 -12 -5 -4 -8 -10 -19 -19 -20 -19 -20 -19 -18 -18
4 5 5 7 9 10 10 10 10 10 10 9 9 9 8 8 7 7 6 6 5 2 -1 -1 -3 -6 -9 -23 -26 -23 -14 -4 -3 -3 -7 -18 -21 -20 -19 -19 -17 -14 -17
3 5 6 6 8 10 9 9 10 9 9 9 9 9 8 8 7 7 6 6 4 1 -0 -2 -1 -3 -7 -20 -25 -24 -21 -5 -4 -4 -4 -9 -21 -20 -18 -18 -19 -20 -21
3 5 5 5 8 10 9 9 9 9 8 8 8 8 8 7 6 6 6 5 3 2 1 -1 -2 -2 -2 -8 -20 -23 -22 -14 -7 -4 -4 -8 -21 -20 -17 -16 -17 -19 -20
1 4 6 7 8 9 9 10 9 9 9 8 8 7 7 7 6 6 6 5 4 2 1 -0 -1 -1 -2 -4 -14 -20 -20 -18 -14 -5 -5 -8 -19 -21 -20 -17 -17 -17 -19
-0 3 3 5 6 8 8 9 9 8 9 8 8 8 7 7 6 6 6 6 5 4 2 1 -1 -3 -4 -7 -11 -17 -22 -20 -19 -14 -9 -12 -16 -22 -22 -21 -19 -17 -16
-0 2 2 4 4 6 7 7 8 8 8 8 8 8 7 7 7 6 6 6 5 5 4 2 2 1 -1 -3 -5 -10 -15 -20 -19 -15 -14 -16 -16 -16 -17 -22 -22 -21 -19

GFSMW_850_dewp_339.txt.gz
Dewpoint
5 9 14 12 12 12 12 11 11 11 10 11 9 9 9 10 11 10 8 9 10 12 11 11 9 9 8 7 7 3 -0 -1 -2 -1 1 2 2 1 1 1 -1 -1 -3
3 5 13 13 13 13 11 10 11 10 10 10 9 10 10 10 11 10 9 9 10 10 10 10 8 8 8 7 7 4 -0 -1 -2 -4 -1 1 1 2 1 1 -0 -1 -1
4 12 13 13 13 12 11 10 11 11 10 10 11 10 10 10 10 9 8 8 6 9 9 9 9 8 8 8 7 5 0 -5 -1 3 4 2 2 2 2 1 0 -1 -1
6 11 13 13 12 12 11 10 11 10 10 10 11 9 10 9 9 8 7 1 -3 8 6 6 10 9 8 8 8 5 -0 -7 2 2 3 5 3 3 2 1 1 0 -2
6 6 12 12 12 12 11 11 11 10 11 10 10 9 10 9 8 6 2 -5 -1 4 6 8 9 9 8 8 8 4 -1 -1 1 2 3 3 4 4 3 2 1 -0 -1
5 5 7 13 13 12 12 12 11 11 11 11 10 10 10 8 7 5 -6 -7 -0 4 7 9 9 8 9 8 5 4 -2 1 3 3 2 1 2 2 0 1 1 -1 -1
6 7 7 9 13 13 12 12 12 11 11 10 11 10 9 7 5 3 -8 -11 -6 2 8 8 8 7 8 5 5 3 2 3 4 4 4 4 4 3 -2 -0 -0 -0 -1
9 8 6 10 13 12 12 12 12 11 11 11 10 10 8 6 6 2 -7 -11 -12 -5 6 7 8 7 5 7 5 5 4 3 4 5 4 4 3 3 1 -2 -2 -1 -1
8 9 10 10 13 13 11 12 11 11 11 11 10 10 8 7 6 0 -7 -6 -7 -9 -9 -2 2 5 6 7 6 6 5 4 4 5 4 3 1 -1 -7 -4 -3 -4 -2
10 10 10 10 12 11 12 12 12 11 10 11 10 9 8 8 6 -0 -8 1 2 -0 -2 -8 -2 4 5 7 5 6 5 4 5 3 3 2 -0 -8 -10 -4 -4 -4 -2
10 8 7 7 9 10 12 12 11 11 10 11 11 10 9 8 6 -0 -3 -1 0 1 2 -6 -15 -11 -6 5 3 4 2 0 -1 -1 -1 -1 -3 -22 -22 -19 -12 -9 -4
9 9 11 11 8 11 12 12 11 11 10 11 11 10 9 9 6 1 -1 0 2 4 -1 -13 -15 -17 -15 -13 -14 -11 -12 -10 -11 -8 -6 -5 -21 -23 -22 -22 -21 -21 -18
9 10 9 10 10 12 13 11 12 11 10 12 11 10 10 8 7 4 2 2 3 3 -8 -16 -19 -21 -19 -21 -20 -18 -18 -15 -12 -15 -16 -22 -22 -22 -22 -21 -21 -21 -20
8 6 4 6 8 12 12 13 12 11 12 12 11 10 10 8 7 6 3 2 3 -3 -12 -19 -21 -22 -22 -23 -22 -20 -18 -17 -19 -21 -21 -23 -22 -22 -22 -21 -21 -21 -20
10 7 6 1 6 12 12 12 12 10 10 10 10 10 10 8 7 7 5 3 3 -4 -9 -17 -20 -20 -21 -22 -22 -20 -19 -20 -21 -21 -22 -23 -22 -22 -21 -21 -20 -20 -19
8 11 12 8 11 12 12 12 12 12 11 9 8 10 10 8 7 7 5 4 3 -2 -8 -12 -17 -19 -22 -21 -22 -19 -20 -20 -21 -23 -23 -23 -22 -21 -21 -21 -19 -18 -18
7 8 10 11 11 12 12 12 12 12 12 9 9 10 10 9 7 7 6 5 4 1 -5 -8 -13 -17 -20 -21 -23 -22 -20 -20 -20 -22 -23 -22 -22 -21 -21 -21 -20 -19 -18
6 7 8 10 11 12 11 12 11 11 11 11 9 10 10 9 7 7 6 5 5 3 -2 -5 -9 -14 -16 -19 -23 -24 -20 -18 -19 -22 -22 -22 -22 -22 -22 -22 -21 -20 -20
3 7 7 8 11 11 11 11 11 11 11 11 9 10 10 9 7 7 7 6 6 4 1 -2 -5 -9 -14 -16 -21 -19 -17 -17 -18 -21 -21 -22 -22 -22 -22 -22 -21 -21 -20
4 7 6 5 11 11 11 11 11 11 11 11 9 10 10 9 8 7 7 6 6 5 3 -0 -1 -3 -10 -14 -18 -19 -15 -17 -18 -19 -20 -20 -21 -22 -22 -22 -21 -21 -20
3 8 8 9 11 11 11 11 11 11 10 10 10 10 10 9 9 8 7 7 6 5 3 2 0 -2 -5 -11 -14 -17 -14 -18 -19 -20 -21 -20 -20 -20 -20 -21 -21 -21 -20
4 5 6 8 10 11 10 11 10 11 11 11 10 10 9 9 9 9 8 7 6 6 4 3 2 -0 -2 -7 -11 -15 -14 -16 -18 -20 -21 -19 -18 -19 -19 -19 -21 -20 -20
2 3 3 5 8 10 10 10 10 10 10 10 10 10 9 9 9 8 8 7 6 6 5 4 3 2 -0 -2 -8 -11 -13 -15 -17 -17 -15 -13 -14 -14 -14 -17 -19 -20 -19
-0 2 4 4 5 7 7 8 9 10 10 10 10 10 9 9 9 9 8 7 7 6 6 5 4 3 2 0 -4 -8 -8 -13 -17 -13 -9 -7 -7 -7 -10 -12 -17 -18 -18
-0 1 3 4 4 5 7 7 8 8 9 10 10 10 10 9 9 9 8 8 7 7 7 6 5 4 4 2 -1 -5 -9 -13 -16 -7 -5 -4 -4 -5 -8 -9 -12 -17 -18
-2 -1 1 2 3 4 5 6 8 8 8 8 9 9 9 9 9 8 8 7 7 7 7 6 5 5 4 2 -0 -2 -4 -8 -14 -12 -6 -5 -6 -6 -9 -11 -12 -15 -19

GFSMW_850_dewp_345.txt.gz
Dewpoint
5 8 10 11 11 11 11 10 8 8 5 1 2 6 5 9 11 11 11 10 10 11 11 12 11 11 11 10 7 5 2 1 -1 -1 1 1 1 1 0 0 -3 -5 -8
12 12 11 9 9 10 11 10 10 10 6 2 7 9 10 11 11 12 11 10 10 11 10 11 12 11 11 9 7 5 -0 -2 -1 -4 -0 2 1 1 1 1 0 -1 -4
9 11 12 9 9 10 8 7 9 11 9 7 9 10 10 11 12 12 10 10 11 10 10 11 11 11 11 9 7 4 -8 -3 -1 -4 -4 1 2 1 1 1 1 0 -2
2 7 9 9 10 9 6 6 7 11 10 10 10 11 10 12 12 11 10 10 10 10 10 10 10 10 11 8 7 4 -3 -9 -5 -3 -3 1 1 1 1 1 1 1 -0
-6 5 9 10 9 5 4 4 5 11 12 10 11 11 11 12 11 10 10 10 10 10 10 11 11 10 9 8 7 6 2 -6 -7 -5 4 5 4 1 1 1 0 1 0
0 3 6 9 7 4 3 5 11 8 12 11 11 11 11 11 11 10 11 11 10 11 11 11 10 8 7 7 6 5 5 0 -5 2 4 4 3 2 3 2 1 1 -0
2 5 8 8 6 5 9 9 11 12 12 11 11 10 10 10 9 9 10 9 9 11 11 10 10 9 8 8 8 7 7 4 -4 1 2 3 4 4 3 2 0 1 -0
-2 6 7 9 7 8 7 6 7 4 11 11 11 10 10 9 9 9 8 8 7 9 10 10 9 7 8 9 8 8 8 5 -3 -2 1 2 3 4 3 3 0 -0 -1
-5 4 8 10 9 11 10 8 8 7 7 10 12 11 10 10 10 9 8 7 6 5 7 8 7 5 9 9 9 8 8 5 -2 -0 2 3 4 4 4 3 3 1 -2
2 4 9 11 10 7 8 9 9 9 10 11 12 11 10 9 10 9 8 7 6 -1 4 7 5 6 9 8 9 8 7 4 -3 1 3 3 4 4 4 4 3 0 -1
5 9 11 11 10 9 8 9 8 6 8 12 12 11 10 10 10 8 7 5 3 -6 -2 1 3 7 8 8 9 6 5 4 0 2 2 2 4 4 4 2 -2 -6 -3
5 8 10 11 11 9 11 9 9 11 11 12 11 11 10 10 9 9 8 5 -4 -7 -3 -2 4 6 7 8 8 6 5 5 3 3 3 3 4 4 4 3 -2 -9 -3
5 8 10 11 11 9 9 8 9 8 6 11 11 11 10 10 10 9 6 4 -5 -7 -5 -4 1 3 5 7 6 4 1 4 4 4 4 4 4 3 2 -0 -5 -13 -6
10 9 10 11 11 11 9 9 10 7 6 10 11 11 10 10 10 10 6 4 -5 -8 -6 -4 -0 2 4 4 5 3 1 2 3 3 2 3 0 -4 -4 -4 -19 -19 -16
7 11 10 10 11 11 12 10 9 8 10 7 10 12 11 10 10 9 6 3 -4 -6 -3 -2 -1 1 1 2 2 0 -0 2 2 2 1 -3 -5 -6 -4 -18 -21 -20 -19
3 7 9 11 11 12 11 11 11 8 9 9 10 11 11 10 11 9 7 4 -2 -3 1 1 1 2 -1 -4 -6 -7 -9 -4 -4 -7 -10 -11 -9 -8 -16 -19 -18 -18 -19
1 4 8 9 10 10 11 8 9 10 10 11 10 11 10 11 10 9 7 6 2 -0 0 2 3 -1 -10 -12 -13 -15 -14 -15 -16 -16 -16 -14 -17 -18 -20 -20 -19 -19 -19
2 4 7 9 10 10 10 9 8 9 10 11 11 11 10 11 10 9 8 8 5 3 2 2 3 -4 -12 -15 -16 -17 -18 -19 -18 -18 -18 -18 -19 -19 -21 -21 -20 -19 -20
1 3 5 8 9 9 9 9 11 9 11 11 11 11 11 11 10 9 9 8 6 5 4 3 2 -4 -10 -13 -15 -17 -18 -19 -18 -18 -18 -18 -18 -18 -19 -19 -18 -19 -20
1 2 4 8 7 6 7 9 10 10 9 10 11 11 11 10 10 10 10 9 7 6 5 4 3 -1 -7 -10 -12 -13 -15 -17 -18 -17 -18 -17 -16 -16 -17 -18 -18 -18 -20
-1 1 3 5 6 7 9 10 10 11 10 9 8 8 10 10 7 10 10 9 6 6 5 5 4 2 -3 -6 -8 -10 -12 -14 -16 -18 -18 -18 -16 -15 -16 -18 -18 -18 -18
-1 0 2 4 5 6 7 7 8 9 10 11 9 8 8 10 9 9 10 9 7 6 6 5 4 3 1 -2 -4 -6 -8 -9 -12 -15 -16 -16 -14 -16 -16 -18 -18 -16 -18
-1 -1 -0 1 3 6 7 7 8 9 10 11 10 11 10 10 10 10 10 10 9 8 6 6 5 5 4 2 -1 -4 -5 -6 -8 -11 -11 -10 -10 -13 -13 -15 -14 -15 -18
-1 -0 2 0 2 4 6 6 8 9 9 9 10 10 10 9 10 9 9 9 9 8 7 7 6 6 6 5 1 0 -3 -4 -5 -7 -7 -7 -7 -9 -11 -11 -10 -10 -11
-8 -3 -1 -1 1 3 5 6 6 7 7 8 8 8 9 10 10 9 9 9 8 9 9 8 8 7 7 7 5 2 2 -1 -2 -4 -5 -5 -6 -8 -9 -10 -9 -8 -7
-11 -13 -13 -8 -2 1 3 4 4 6 7 7 5 7 8 8 9 9 9 9 9 9 9 9 9 8 8 7 7 5 5 3 1 -2 -3 -4 -5 -7 -9 -10 -11 -9 -8

GFSMW_850_dewp_348.txt.gz
Dewpoint
-16 0 12 9 10 12 13 12 10 6 4 4 4 4 4 2 5 11 12 12 11 11 12 11 10 10 11 10 8 7 6 4 -1 -1 0 1 0 -0 -2 -3 -4 -6 -11
-14 -4 10 13 11 10 12 12 10 9 5 6 5 5 3 3 7 11 12 12 11 11 12 11 10 10 11 11 8 7 5 3 -1 -4 -0 1 0 0 0 -0 -1 -2 -5
-13 -6 10 12 13 11 11 10 11 10 8 6 7 6 4 3 8 10 11 11 11 11 12 12 11 10 11 10 9 7 4 1 -1 -4 -3 -1 -0 0 0 0 0 -0 -2
-15 -10 2 12 13 13 10 9 11 10 10 7 7 6 2 2 6 9 11 11 11 11 12 11 11 11 11 9 9 7 5 -1 -7 -2 -3 -3 -4 -1 -1 0 0 0 -1
-14 -12 -2 5 11 12 11 9 10 10 9 5 5 4 2 5 6 10 12 11 10 10 11 11 12 11 11 10 9 7 4 -5 -8 -5 -2 2 3 0 -0 -0 -0 0 0
-17 -12 -9 0 7 11 12 11 10 10 9 8 7 6 3 6 10 11 11 11 10 10 11 11 11 11 11 10 10 7 4 -2 -6 -6 1 3 3 1 1 0 -1 -0 -0
-13 -13 -6 2 7 10 12 12 9 10 10 9 8 6 8 7 10 10 11 11 11 11 11 11 11 11 11 10 8 6 5 3 -4 -5 -0 4 4 3 3 2 1 -1 -1
1 -9 -12 -7 4 6 11 12 10 9 8 7 6 6 7 11 10 10 11 11 10 10 10 11 11 11 10 8 7 6 5 6 3 -4 2 3 3 3 4 3 3 1 -0
4 1 -5 -7 1 5 9 11 6 7 6 5 8 7 11 11 10 10 10 10 10 9 9 11 11 11 9 8 7 8 8 7 6 2 -2 2 2 2 3 4 3 2 2
5 4 1 -4 -1 3 8 7 5 4 6 9 7 7 9 11 11 10 10 10 9 9 9 10 11 10 9 8 8 8 8 8 7 3 -1 -0 2 2 3 3 3 3 3
4 6 3 -4 1 1 8 8 7 6 9 9 7 8 10 11 12 9 10 9 9 9 8 9 10 10 8 8 9 9 8 8 7 5 -1 1 3 3 4 4 4 3 -2
5 6 4 -1 9 9 11 10 7 7 8 9 8 11 11 10 12 11 10 9 9 9 8 7 6 8 6 5 9 8 8 8 7 5 -1 0 3 3 4 4 4 3 -1
6 5 4 7 10 10 10 12 11 9 7 8 8 8 10 10 10 11 10 10 10 9 7 4 1 6 4 5 8 8 8 6 5 4 0 1 2 3 4 4 4 1 -1
4 7 8 9 9 10 10 11 11 10 9 9 8 8 9 9 11 11 10 10 8 8 6 -2 -1 2 3 6 7 7 8 6 4 5 3 3 3 4 5 4 1 -1 -4
2 3 7 10 9 9 10 11 11 9 9 9 9 7 8 9 11 11 10 9 9 6 2 -5 -2 1 3 5 6 7 7 5 4 4 4 4 3 4 3 -0 -3 -4 -17
1 2 5 8 11 10 10 10 11 10 9 6 7 8 9 10 11 11 10 9 9 5 -2 -6 -4 -2 1 2 5 6 5 5 5 3 3 3 2 3 1 -5 -6 -17 -20
-0 1 3 5 9 10 11 11 10 10 8 9 8 8 9 10 11 11 10 10 7 5 -2 -8 -5 -2 -0 1 3 3 6 5 4 2 3 2 -0 -3 -5 -6 -13 -19 -20
-1 -0 2 6 8 9 10 10 10 11 9 9 9 9 9 10 11 11 10 10 7 5 -0 -6 -4 -2 -0 0 1 1 2 3 -0 -2 -1 -5 -9 -11 -10 -12 -18 -20 -20
-2 -1 1 3 6 9 10 10 10 11 11 10 9 8 9 9 9 11 10 10 7 5 1 -4 -2 1 1 2 1 -4 -6 -4 -7 -8 -10 -11 -11 -9 -13 -16 -17 -19 -19
-2 -1 0 3 6 7 9 10 10 9 10 10 10 10 10 10 9 10 11 10 7 6 4 -1 1 1 3 3 -4 -9 -9 -9 -12 -12 -13 -12 -12 -13 -14 -16 -18 -18 -19
-2 -2 -0 2 2 4 7 9 9 8 7 10 10 10 10 10 10 10 11 10 8 7 6 3 2 3 3 2 -4 -10 -12 -14 -15 -15 -16 -15 -15 -14 -14 -16 -18 -18 -15
-1 -0 -1 -1 2 2 6 7 8 8 8 9 10 10 9 10 10 10 10 9 8 7 7 4 4 4 3 3 -2 -7 -9 -11 -13 -15 -15 -14 -14 -13 -14 -14 -16 -14 -14
-2 -1 0 -2 1 3 6 5 5 7 9 10 10 10 10 10 10 10 10 8 9 8 8 6 5 5 4 3 2 -3 -5 -7 -8 -10 -10 -10 -10 -11 -10 -11 -12 -12 -13
-9 -2 0 1 1 2 3 4 6 7 7 8 9 10 8 8 9 10 10 10 9 10 9 7 6 5 5 5 3 1 -2 -3 -4 -5 -5 -5 -6 -6 -7 -8 -10 -11 -12
-14 -14 -9 -2 -1 1 2 3 5 6 6 6 7 8 9 9 9 10 9 10 9 9 9 9 8 7 6 6 5 4 3 1 -2 -3 -2 -3 -4 -5 -6 -7 -8 -10 -10
-15 -15 -14 -13 -7 -2 0 2 3 4 5 6 6 7 7 7 7 7 9 9 9 9 9 9 9 9 8 8 6 5 5 4 2 1 -0 0 -3 -5 -6 -7 -8 -9 -10